EW2549 Weather Reports


time (UTC)temp
C
wind
direction
speed
KPH
gust
KPH
rain 1hr
cm
rain 24hr
cm
rain mn
cm
humidity
%
barometer
mb
20260505111559 2 33 1.6 11.3 0.10 0.51 0.13 90 1007.3
20260505101546 3 30 0.0 12.9 0.03 0.41 0.03 90 1006.0
20260505100039 4 348 3.2 14.5 0.03 0.41 0.03 90 1005.8
20260505094537 5 319 3.2 14.5 0.03 0.41 0.03 90 1005.5
20260505093042 5 5 3.2 14.5 0.00 0.38 0.00 90 1005.5
20260505091540 5 355 3.2 16.1 0.00 0.38 0.00 90 1005.4
20260505090043 5 17 1.6 16.1 0.00 0.38 0.00 89 1004.8
20260505084526 5 338 1.6 14.5 0.00 0.38 0.00 89 1004.9
20260505083025 6 323 0.0 9.7 0.00 0.38 0.00 89 1005.0
20260505081524 6 355 3.2 14.5 0.00 0.38 0.00 89 1005.1
20260505080033 7 250 0.0 0.0 0.00 0.38 0.00 90 1004.9
20260505074514 7 250 0.0 0.0 0.00 0.38 0.00 90 1004.7
20260505073016 7 250 0.0 0.0 0.00 0.38 0.00 90 1004.8
20260505071513 7 250 0.0 0.0 0.00 0.38 0.00 89 1004.7
20260505070018 7 250 0.0 0.0 0.00 0.38 0.00 89 1004.7
20260505063009 7 250 0.0 0.0 0.00 0.38 0.00 89 1004.6
20260505061515 7 250 0.0 0.0 0.00 0.38 0.00 88 1004.5
20260505060013 7 250 0.0 0.0 0.00 0.38 0.00 88 1004.4
20260505054505 7 250 0.0 0.0 0.00 0.38 0.38 87 1004.6
20260505053012 7 250 0.0 0.0 0.00 0.38 0.38 86 1004.3
20260505051504 7 250 0.0 0.0 0.00 0.38 0.38 86 1004.3
20260505041611 7 259 0.0 0.0 0.15 0.38 0.38 86 1004.6
20260505034558 8 244 0.0 0.0 0.28 0.36 0.36 84 1004.3
20260505033058 8 253 0.0 12.9 0.20 0.28 0.28 83 1004.7
20260505031559 8 257 4.8 12.9 0.15 0.23 0.23 81 1004.3
20260505030052 9 298 6.4 14.5 0.08 0.15 0.15 78 1003.9
20260505024550 10 324 0.0 0.0 0.00 0.08 0.08 73 1003.4
20260505023050 10 5 0.0 0.0 0.00 0.08 0.08 69 1003.0
20260505021544 10 22 0.0 11.3 0.00 0.08 0.08 66 1002.7
20260505020043 11 309 0.0 0.0 0.00 0.08 0.08 62 1002.6
20260505014600 12 355 0.0 8.0 0.00 0.08 0.08 55 1002.8
20260505013042 12 185 0.0 0.0 0.00 0.08 0.08 54 1002.2
20260505011539 13 185 0.0 0.0 0.00 0.08 0.08 53 1002.2
20260505010039 13 109 0.0 0.0 0.00 0.08 0.08 50 1002.1
20260505004543 13 176 0.0 11.3 0.00 0.08 0.08 49 1002.0
20260505003038 14 342 0.0 0.0 0.00 0.08 0.08 47 1001.8
20260505001540 14 342 0.0 0.0 0.00 0.08 0.08 47 1001.8
20260505000044 14 346 0.0 0.0 0.00 0.08 0.08 47 1001.5
20260504234546 15 331 0.0 0.0 0.00 0.08 0.08 46 1001.4
20260504233138 15 15 0.0 0.0 0.00 0.08 0.08 46 1001.2
20260504231537 15 310 0.0 0.0 0.00 0.08 0.08 48 1001.1
20260504230036 14 338 0.0 17.7 0.00 0.08 0.08 46 1000.9
20260504224534 15 327 3.2 17.7 0.00 0.08 0.08 46 1000.9
20260504223039 15 316 0.0 9.7 0.00 0.08 0.08 46 1001.1
20260504221535 15 333 6.4 14.5 0.00 0.08 0.08 43 1000.8
20260504220033 16 355 1.6 17.7 0.00 0.08 0.08 39 1000.4
20260504214532 17 59 0.0 20.9 0.00 0.08 0.08 36 999.8
20260504213053 18 24 0.0 12.9 0.00 0.08 0.08 35 999.6
20260504211532 18 103 0.0 0.0 0.00 0.08 0.08 34 999.3
20260504210031 17 91 0.0 0.0 0.00 0.08 0.08 37 999.3
20260504204531 17 83 0.0 6.4 0.00 0.08 0.08 39 999.5
20260504203034 16 109 0.0 0.0 0.00 0.08 0.08 41 999.8
20260504201533 15 184 0.0 0.0 0.08 0.08 0.08 45 1000.3
20260504200030 15 116 3.2 11.3 0.08 0.08 0.08 48 1000.7
20260504194528 13 121 0.0 24.1 0.08 0.08 0.08 54 1000.3
20260504193030 15 207 3.2 17.7 0.08 0.08 0.08 50 1000.3
20260504191526 19 185 9.7 22.5 0.00 0.00 0.00 26 1000.1
20260504190027 20 220 0.0 0.0 0.00 0.00 0.00 21 999.3
20260504184524 20 244 1.6 12.9 0.00 0.00 0.00 20 999.2
20260504183025 20 328 0.0 14.5 0.00 0.00 0.00 22 999.2
20260504181523 20 349 0.0 0.0 0.00 0.00 0.00 23 999.2
20260504180020 20 306 0.0 11.3 0.00 0.00 0.00 24 999.6
20260504174518 21 272 1.6 17.7 0.00 0.00 0.00 22 999.7
20260504173026 21 311 8.0 22.5 0.00 0.00 0.00 23 1000.1
20260504171519 21 337 1.6 19.3 0.00 0.00 0.00 23 1000.2